When you browse on this site, cookies collect data to enhance your experience and personalize the content and advertising you see.
Visit our Privacy Policy to learn more. By continuing to use the site, you agree to this use of cookies and data.
  • In Lithuania
  • List of Countries
  • For 7 days
  • Water Temperature
  • Satellite Maps
  • Weather Map
  • Weather Widgets
  • user-avatar
    Login

    Hourly Weather La Rioja

    Today, 18 December, Tuesday

    Time Temperature Precipitation Wind Pressure Humidity
    00:00 +27°C° 0.5 mm 4 mps 716 mmHg 61%
    01:00 +27°C° 0.5 mm 3 mps 716 mmHg 63%
    02:00 +26°C° 0 mm 3 mps 717 mmHg 56%
    03:00 +26°C° 0 mm 3 mps 717 mmHg 58%
    04:00 +25°C° 0 mm 2 mps 717 mmHg 59%
    05:00 +24°C° 0 mm 2 mps 717 mmHg 60%
    06:00 +25°C° 0.1 mm 2 mps 718 mmHg 57%
    07:00 +25°C° 0.1 mm 3 mps 718 mmHg 53%
    08:00 +26°C° 0.1 mm 3 mps 718 mmHg 50%
    09:00 +27°C° 0.1 mm 3 mps 718 mmHg 47%
    10:00 +27°C° 0.1 mm 3 mps 718 mmHg 45%
    11:00 +28°C° 0.1 mm 4 mps 718 mmHg 43%
    12:00 +29°C° 0 mm 4 mps 717 mmHg 42%
    13:00 +29°C° 0 mm 4 mps 717 mmHg 42%
    14:00 +30°C° 0 mm 4 mps 716 mmHg 42%
    15:00 +30°C° 0.1 mm 4 mps 716 mmHg 45%
    16:00 +29°C° 0.1 mm 4 mps 715 mmHg 49%
    17:00 +29°C° 0.1 mm 4 mps 715 mmHg 53%
    18:00 +28°C° 0.1 mm 4 mps 715 mmHg 57%
    19:00 +27°C° 0.1 mm 3 mps 715 mmHg 61%
    20:00 +27°C° 0.1 mm 3 mps 715 mmHg 65%
    21:00 +26°C° 0.5 mm 2 mps 716 mmHg 67%
    22:00 +26°C° 0.5 mm 2 mps 716 mmHg 70%
    23:00 +25°C° 0.5 mm 1 mps 716 mmHg 72%

    Tomorrow, 19 December, Wednesday

    Time Temperature Precipitation Wind Pressure Humidity
    00:00 +25°C° 0.5 mm 1 mps 716 mmHg 75%
    01:00 +25°C° 0.5 mm 1 mps 715 mmHg 77%
    02:00 +24°C° 0.5 mm 1 mps 715 mmHg 79%
    03:00 +24°C° 0.3 mm 2 mps 714 mmHg 80%
    04:00 +24°C° 0.3 mm 2 mps 714 mmHg 81%
    05:00 +23°C° 0.3 mm 2 mps 714 mmHg 82%
    06:00 +24°C° 0.5 mm 2 mps 714 mmHg 79%
    07:00 +24°C° 0.5 mm 1 mps 714 mmHg 76%
    08:00 +25°C° 0.5 mm 1 mps 714 mmHg 73%
    09:00 +26°C° 0.6 mm 2 mps 714 mmHg 66%
    10:00 +28°C° 0.6 mm 2 mps 713 mmHg 59%
    11:00 +29°C° 0.6 mm 2 mps 713 mmHg 52%
    12:00 +31°C° 0.5 mm 2 mps 712 mmHg 47%
    13:00 +33°C° 0.5 mm 3 mps 711 mmHg 43%
    14:00 +34°C° 0.5 mm 3 mps 710 mmHg 38%
    15:00 +35°C° 0.1 mm 3 mps 710 mmHg 37%
    16:00 +35°C° 0.1 mm 3 mps 709 mmHg 35%
    17:00 +35°C° 0.1 mm 4 mps 709 mmHg 34%
    18:00 +34°C° 0 mm 4 mps 709 mmHg 38%
    19:00 +33°C° 0 mm 4 mps 709 mmHg 42%
    20:00 +31°C° 0 mm 3 mps 710 mmHg 47%
    21:00 +30°C° 0 mm 3 mps 710 mmHg 51%
    22:00 +29°C° 0 mm 2 mps 710 mmHg 56%
    23:00 +29°C° 0 mm 2 mps 711 mmHg 61%

    Day after tomorrow, 20 December, Thursday

    Time Temperature Precipitation Wind Pressure Humidity
    00:00 +28°C° 0 mm 2 mps 710 mmHg 63%
    01:00 +27°C° 0 mm 1 mps 710 mmHg 65%
    02:00 +27°C° 0 mm 1 mps 709 mmHg 67%
    03:00 +26°C° 0 mm 1 mps 709 mmHg 68%
    04:00 +26°C° 0 mm 1 mps 709 mmHg 69%
    05:00 +25°C° 0 mm 1 mps 709 mmHg 70%
    06:00 +26°C° 0 mm 2 mps 710 mmHg 67%
    07:00 +27°C° 0 mm 2 mps 710 mmHg 65%
    08:00 +28°C° 0 mm 3 mps 711 mmHg 63%
    09:00 +29°C° 0 mm 3 mps 711 mmHg 58%
    10:00 +30°C° 0 mm 3 mps 711 mmHg 54%
    11:00 +31°C° 0 mm 3 mps 711 mmHg 49%
    12:00 +33°C° 0 mm 3 mps 710 mmHg 45%
    13:00 +34°C° 0 mm 3 mps 709 mmHg 40%
    14:00 +36°C° 0 mm 3 mps 709 mmHg 35%
    15:00 +36°C° 0 mm 4 mps 709 mmHg 34%
    16:00 +36°C° 0 mm 4 mps 709 mmHg 33%
    17:00 +36°C° 0 mm 5 mps 709 mmHg 32%
    18:00 +35°C° 0.9 mm 5 mps 710 mmHg 39%
    19:00 +33°C° 0.9 mm 6 mps 710 mmHg 45%
    20:00 +30°C° 0.9 mm 6 mps 711 mmHg 51%
    21:00 +29°C° 2 mm 6 mps 712 mmHg 54%
    22:00 +28°C° 2 mm 6 mps 714 mmHg 57%
    23:00 +27°C° 2 mm 6 mps 715 mmHg 60%

    21 December, Friday

    Time Temperature Precipitation Wind Pressure Humidity
    00:00 +26°C° 0.5 mm 6 mps 715 mmHg 61%
    01:00 +26°C° 0.5 mm 5 mps 715 mmHg 62%
    02:00 +25°C° 0.5 mm 5 mps 715 mmHg 63%
    03:00 +25°C° 0 mm 4 mps 715 mmHg 59%
    04:00 +25°C° 0 mm 4 mps 715 mmHg 56%
    05:00 +25°C° 0 mm 3 mps 715 mmHg 52%
    06:00 +25°C° 0 mm 3 mps 716 mmHg 48%
    07:00 +26°C° 0 mm 3 mps 716 mmHg 43%
    08:00 +26°C° 0 mm 3 mps 716 mmHg 39%
    09:00 +28°C° 0 mm 3 mps 716 mmHg 36%
    10:00 +29°C° 0 mm 2 mps 715 mmHg 32%
    11:00 +30°C° 0 mm 2 mps 714 mmHg 29%
    12:00 +31°C° 0 mm 2 mps 713 mmHg 28%
    13:00 +33°C° 0 mm 3 mps 712 mmHg 27%
    14:00 +34°C° 0 mm 3 mps 711 mmHg 25%
    15:00 +34°C° 0 mm 3 mps 711 mmHg 25%
    16:00 +34°C° 0 mm 3 mps 711 mmHg 25%
    17:00 +34°C° 0 mm 4 mps 710 mmHg 25%
    18:00 +33°C° 0 mm 3 mps 711 mmHg 27%
    19:00 +31°C° 0 mm 3 mps 711 mmHg 29%
    20:00 +30°C° 0 mm 2 mps 712 mmHg 31%
    21:00 +30°C° 0 mm 2 mps 713 mmHg 33%
    22:00 +29°C° 0 mm 2 mps 713 mmHg 35%
    23:00 +28°C° 0 mm 2 mps 714 mmHg 36%

    22 December, Saturday

    Time Temperature Precipitation Wind Pressure Humidity
    00:00 +28°C° 0 mm 2 mps 714 mmHg 39%
    01:00 +27°C° 0 mm 1 mps 713 mmHg 42%
    02:00 +26°C° 0 mm 1 mps 713 mmHg 45%
    03:00 +26°C° 0 mm 1 mps 713 mmHg 46%
    04:00 +26°C° 0 mm 1 mps 713 mmHg 48%
    05:00 +25°C° 0 mm 1 mps 713 mmHg 49%
    06:00 +26°C° 0 mm 1 mps 714 mmHg 45%
    07:00 +27°C° 0 mm 1 mps 714 mmHg 42%
    08:00 +29°C° 0 mm 1 mps 714 mmHg 38%
    09:00 +30°C° 0 mm 1 mps 714 mmHg 35%
    10:00 +31°C° 0 mm 2 mps 714 mmHg 33%
    11:00 +34°C° 0 mm 2 mps 714 mmHg 30%
    12:00 +35°C° 0 mm 3 mps 713 mmHg 28%
    13:00 +35°C° 0 mm 3 mps 712 mmHg 26%
    14:00 +36°C° 0 mm 4 mps 712 mmHg 24%
    15:00 +37°C° 0 mm 4 mps 711 mmHg 25%
    16:00 +37°C° 0 mm 5 mps 711 mmHg 25%
    17:00 +37°C° 0 mm 5 mps 711 mmHg 26%
    18:00 +35°C° 0 mm 5 mps 711 mmHg 30%
    19:00 +34°C° 0 mm 5 mps 712 mmHg 34%
    20:00 +33°C° 0 mm 4 mps 712 mmHg 38%
    21:00 +32°C° 0.1 mm 4 mps 713 mmHg 41%
    22:00 +30°C° 0.1 mm 3 mps 714 mmHg 44%
    23:00 +29°C° 0.1 mm 2 mps 714 mmHg 47%

    23 December, Sunday

    Time Temperature Precipitation Wind Pressure Humidity
    00:00 +29°C° 0.1 mm 2 mps 714 mmHg 49%
    01:00 +28°C° 0.1 mm 1 mps 714 mmHg 51%
    02:00 +28°C° 0.1 mm 1 mps 714 mmHg 52%
    03:00 +27°C° 0 mm 1 mps 714 mmHg 53%
    04:00 +27°C° 0 mm 1 mps 714 mmHg 55%
    05:00 +26°C° 0 mm 1 mps 714 mmHg 56%
    06:00 +27°C° 0 mm 1 mps 715 mmHg 52%
    07:00 +28°C° 0 mm 1 mps 715 mmHg 48%
    08:00 +29°C° 0 mm 1 mps 716 mmHg 44%
    09:00 +30°C° 0 mm 2 mps 716 mmHg 41%
    10:00 +32°C° 0 mm 2 mps 716 mmHg 38%
    11:00 +34°C° 0 mm 2 mps 715 mmHg 35%
    12:00 +35°C° 0.2 mm 3 mps 715 mmHg 32%
    13:00 +36°C° 0.2 mm 3 mps 714 mmHg 30%
    14:00 +37°C° 0.2 mm 4 mps 714 mmHg 27%
    15:00 +37°C° 0.1 mm 5 mps 713 mmHg 27%
    16:00 +37°C° 0.1 mm 5 mps 713 mmHg 26%
    17:00 +38°C° 0.1 mm 6 mps 712 mmHg 26%
    18:00 +36°C° 0 mm 5 mps 713 mmHg 29%
    19:00 +35°C° 0 mm 5 mps 713 mmHg 32%
    20:00 +33°C° 0 mm 4 mps 714 mmHg 35%
    21:00 +32°C° 0.1 mm 4 mps 714 mmHg 38%
    22:00 +30°C° 0.1 mm 3 mps 715 mmHg 41%
    23:00 +30°C° 0.1 mm 3 mps 715 mmHg 45%
    Show more